Dewpoint
61 61 61 61 61 61 60 60 61 61 61 61 61 61 60 60 57 51 36 46 49 57 51 27 26 26 26 31 34 32 25 21 20 20 18 18 18 19 17 15 16 18 18 18 41
61 61 61 61 60 60 60 60 61 61 61 61 61 61 59 58 47 35 50 57 57 54 29 27 26 25 22 27 30 27 24 21 22 20 19 19 18 19 19 17 16 16 18 23 43
61 61 60 60 60 60 59 59 60 60 61 61 61 61 59 55 28 30 53 57 57 45 32 31 28 24 22 23 25 27 23 22 22 22 22 21 19 19 17 18 18 17 17 18 38
60 60 60 59 59 59 59 59 60 60 61 61 61 60 58 48 21 33 54 55 54 36 28 26 26 27 23 22 22 21 24 24 26 23 23 21 21 19 17 19 21 18 18 16 28
59 58 59 58 58 58 58 58 60 60 61 61 61 58 45 28 29 32 52 42 31 27 25 25 25 28 27 26 22 20 20 21 22 24 23 23 22 20 19 20 21 20 20 18 18
59 58 58 57 57 58 56 58 59 60 60 61 58 56 35 24 33 29 29 31 28 26 24 25 26 27 26 24 23 22 22 23 23 22 22 21 21 21 20 21 19 19 19 19 19
59 57 57 57 56 56 56 57 59 59 60 60 57 48 32 31 29 27 28 30 30 28 26 30 29 29 27 26 24 21 19 20 21 21 20 21 21 19 20 20 20 20 20 20 20
57 56 56 55 55 55 56 58 58 59 60 58 55 44 31 39 28 36 32 31 30 28 28 29 30 27 25 25 23 22 23 21 23 23 21 20 21 23 23 23 24 23 21 20 22
56 55 54 53 53 54 56 58 58 59 58 58 45 39 30 42 38 42 32 29 29 30 28 22 27 25 24 23 22 22 21 21 22 24 21 24 23 25 25 24 23 24 23 23 23
54 54 53 52 53 54 57 57 57 52 48 46 38 26 33 34 40 41 35 27 28 27 27 26 25 22 23 23 23 21 21 22 22 24 23 23 23 25 27 27 27 27 25 25 25
53 52 51 51 53 55 54 46 36 26 40 37 35 37 38 42 42 37 27 25 27 25 23 26 23 23 22 22 23 21 23 23 24 27 24 24 25 26 27 27 27 25 27 26 28
51 50 50 50 52 55 50 47 44 43 39 43 44 43 43 42 28 28 26 26 26 23 23 25 22 26 25 25 24 24 23 24 26 26 27 25 25 23 25 26 26 25 25 29 28
50 50 50 52 54 49 46 44 45 45 38 33 39 39 37 30 25 25 25 25 23 23 25 25 19 26 25 25 25 25 24 25 23 26 26 22 22 13 9 16 19 26 31 30 28
48 49 49 52 40 46 45 47 43 43 17 16 33 32 28 27 24 26 24 25 26 25 24 24 26 26 26 25 26 24 25 25 25 26 11 21 15 14 15 19 22 30 31 30 27
48 47 48 51 44 44 46 47 41 35 22 24 32 30 30 27 25 29 23 25 25 24 27 17 24 24 25 22 25 25 27 25 25 16 18 18 20 17 15 19 24 15 2 15 17
48 47 48 46 42 45 47 43 37 23 23 16 32 30 21 25 30 32 29 28 25 23 24 23 24 27 25 28 25 27 24 20 22 21 19 16 18 16 15 21 17 7 1 13 14
48 48 49 47 34 46 46 31 20 23 21 13 25 29 27 23 29 30 29 21 28 24 23 26 27 29 29 22 22 27 21 17 10 10 11 14 9 6 17 27 18 2 10 10 23
48 49 47 50 46 46 31 14 17 26 18 27 29 28 19 26 27 27 22 14 30 28 26 24 11 19 24 24 26 24 23 18 12 5 3 8 9 10 2 4 1 9 10 14 23
47 46 46 46 47 45 18 14 23 17 15 28 21 14 25 31 21 16 22 24 21 24 22 23 19 23 25 24 19 16 23 21 13 10 8 9 8 5 5 0 2 8 12 16 21
43 42 42 47 46 42 17 17 15 7 33 34 15 12 16 26 15 21 20 26 24 21 25 23 17 20 21 18 23 3 9 12 12 1 -0 -6 -8 -7 0 3 8 8 10 7 9
43 23 38 47 45 37 18 15 18 30 32 31 26 18 26 23 21 22 15 20 19 17 18 19 18 10 -0 4 -7 2 6 2 3 6 -5 -6 -11 3 5 8 7 11 6 7 12
41 9 41 46 33 33 27 25 36 34 31 28 30 30 23 23 21 24 24 18 18 17 8 14 9 10 -10 -2 4 5 5 4 6 2 2 7 5 9 9 9 10 7 3 4 5
33 28 45 45 23 27 35 36 34 29 29 27 26 24 18 17 14 21 20 19 17 12 11 11 13 5 1 -2 -3 3 4 6 9 12 9 5 3 7 8 9 1 1 1 1 4
34 24 40 43 38 29 31 30 32 30 27 24 20 16 13 14 15 14 16 20 19 16 20 19 16 8 -7 -8 2 5 7 10 11 10 8 7 7 7 4 -2 -1 -0 1 3 4
37 32 33 36 36 36 34 32 30 27 30 21 17 16 15 12 14 13 15 12 16 17 18 12 9 8 6 6 9 11 12 12 10 9 8 8 2 -2 -2 -2 -1 1 4 5 6
35 33 36 36 36 36 36 32 29 30 28 23 19 18 16 11 8 14 13 12 11 16 16 17 12 11 11 12 10 8 9 9 8 1 -3 0 1 0 0 1 3 5 8 10 13
41 38 37 34 33 34 33 33 32 32 28 23 20 18 16 16 16 16 17 17 15 15 14 14 15 8 1 9 9 1 5 -1 -1 0 0 -0 1 2 4 7 11 14 15 16 15
Lifted_Index
8 8 8 8 8 8 9 8 8 8 8 8 8 8 9 10 10 10 11 11 12 12 12 11 10 10 9 9 9 8 5 4 5 6 6 7 7 7 7 7 6 6 6 7 8
9 9 9 9 9 9 9 9 8 8 8 8 8 8 9 10 10 10 11 11 12 12 12 11 10 10 9 9 9 7 5 5 6 7 7 7 7 7 7 6 6 6 6 7 7
9 9 9 9 9 9 9 9 9 8 8 8 8 9 9 10 9 10 11 12 12 12 11 11 10 9 8 8 8 7 6 6 7 8 8 8 7 7 7 6 6 6 6 6 7
9 9 9 10 10 10 10 10 9 8 8 8 8 9 9 9 8 9 11 11 11 11 10 10 9 8 8 8 8 7 6 7 7 8 8 8 8 7 7 7 7 7 6 6 6
9 10 10 11 11 11 11 10 9 8 8 8 8 9 9 8 8 9 10 10 10 10 10 9 9 8 7 7 7 7 7 7 7 8 8 8 8 7 6 7 7 7 7 7 6
9 10 11 11 11 11 11 10 9 8 8 8 9 9 8 7 8 9 9 9 9 9 9 9 9 9 8 8 8 8 8 7 7 7 8 8 8 6 7 7 7 7 7 7 6
9 10 11 11 11 11 11 10 9 9 8 8 9 9 8 8 8 9 9 9 9 10 10 10 10 9 9 9 8 8 7 7 6 7 8 8 7 6 7 8 7 7 7 6 6
10 11 11 11 11 11 11 10 9 9 8 8 9 8 8 8 9 9 9 9 10 10 11 10 10 10 9 8 8 7 6 6 6 7 8 7 5 5 7 7 7 7 7 7 7
10 11 12 12 11 11 11 10 9 9 8 8 8 8 8 8 9 9 10 10 10 11 11 11 10 9 9 7 6 6 5 5 6 7 8 7 5 6 7 7 6 7 7 7 7
11 11 12 12 12 11 11 10 9 8 7 7 7 7 8 9 9 10 11 11 10 11 10 10 9 8 8 7 6 6 6 5 6 7 8 7 6 6 6 7 7 7 7 7 7
11 11 12 12 12 11 10 9 8 7 6 6 7 8 9 9 10 11 11 11 11 10 10 9 8 8 8 8 7 7 6 6 6 7 8 7 6 6 6 7 7 7 8 8 7
11 11 12 12 12 12 10 9 9 8 7 6 7 8 9 9 10 11 11 11 11 10 9 9 8 8 9 8 8 7 6 6 7 8 8 8 7 6 7 7 8 8 8 8 8
11 11 12 13 12 11 10 10 11 9 7 6 8 8 8 9 9 10 11 11 11 10 9 9 9 9 9 9 8 7 7 7 7 8 8 8 6 6 7 8 9 8 8 9 9
11 11 12 12 11 10 10 11 11 9 6 5 7 8 8 8 9 10 11 11 11 10 10 9 9 9 9 9 8 7 7 8 8 8 8 7 5 5 8 9 9 8 8 9 11
11 12 13 12 10 10 11 12 10 7 5 5 6 7 8 8 9 10 11 12 11 11 10 10 10 10 9 9 8 8 8 9 9 8 7 6 5 6 8 9 9 8 8 9 10
12 13 14 13 11 11 12 11 8 5 4 4 5 6 6 7 8 10 11 12 11 10 10 10 10 11 10 9 9 9 9 9 8 7 5 6 6 7 8 9 8 7 7 7 7
14 14 14 13 11 12 11 9 5 3 3 4 4 5 5 6 8 9 10 11 10 9 8 9 10 11 11 10 10 10 9 7 4 3 4 6 7 7 9 9 8 7 7 6 6
15 15 14 13 12 11 9 6 3 3 3 3 4 4 4 6 8 9 10 10 10 10 8 7 8 10 12 12 11 11 9 7 4 3 4 6 7 9 10 9 8 7 7 6 5
14 14 13 13 12 11 7 4 3 3 3 3 3 3 4 5 8 9 10 10 11 11 9 7 8 11 13 13 12 12 11 9 7 5 4 6 8 10 12 10 8 7 6 6 5
12 11 11 12 12 9 5 3 3 3 4 3 3 3 4 5 7 9 10 11 12 12 11 10 9 11 12 12 12 12 12 11 9 6 3 4 7 10 11 9 7 6 6 5 5
8 8 10 11 10 7 4 3 3 4 5 4 4 5 5 6 8 9 10 11 12 12 12 11 10 10 11 12 12 13 12 11 9 7 5 4 6 9 10 8 6 6 6 6 6
6 7 10 10 7 5 4 4 5 5 5 6 7 8 8 8 8 9 10 12 13 13 12 12 10 8 9 12 13 13 12 11 9 8 7 6 7 9 9 7 7 6 6 6 6
5 6 9 10 7 4 3 4 5 5 6 7 9 10 10 8 8 9 11 12 14 14 13 13 11 8 8 11 12 12 11 10 9 8 8 7 7 8 8 8 7 7 7 7 7
4 5 7 8 6 4 3 3 4 5 7 9 10 10 9 8 9 10 11 13 14 15 15 14 11 9 8 10 11 11 10 10 9 9 8 7 8 8 8 8 7 7 7 8 8
4 4 5 5 4 4 3 3 3 5 8 10 10 9 9 8 9 11 11 13 14 15 15 13 11 10 10 11 11 10 9 9 9 9 9 8 8 8 8 8 7 7 8 8 8
5 5 4 3 3 3 3 3 4 6 8 9 9 10 10 10 11 12 13 13 14 14 14 12 10 10 10 10 10 9 8 9 10 10 9 8 8 8 8 8 8 8 8 9 9
7 7 5 3 3 3 3 3 5 7 9 9 10 11 12 12 13 14 14 14 14 13 13 11 10 9 8 9 9 7 7 9 11 10 9 7 7 8 8 8 9 9 9 9 10